When you browse on this site, cookies collect data to enhance your experience and personalize the content and advertising you see.
Visit our Privacy Policy to learn more. By continuing to use the site, you agree to this use of cookies and data.
  • In Österreich
  • Länderverzeichnis
  • Für 7 Tage
  • Wassertemperatur
  • Satellitenkarten
  • Wetterkarte
  • News
  • Widgets
  • user-avatar
    Anmelden

    Stündliche Wetter Kozyatyn

    Heute, 21 Juli, Sonntag

    Zeit Temperatur Niederschläge Wind Luftdruck Luftfeuchtigkeit
    00:00 +17°C° 0.2 mm 2 m/S 738 mmHg 83%
    01:00 +17°C° 0.2 mm 2 m/S 738 mmHg 85%
    02:00 +16°C° 0 mm 2 m/S 739 mmHg 86%
    03:00 +16°C° 0.3 mm 2 m/S 739 mmHg 87%
    04:00 +16°C° 0.3 mm 1 m/S 738 mmHg 88%
    05:00 +16°C° 0.3 mm 1 m/S 738 mmHg 89%
    06:00 +19°C° 0.1 mm 1 m/S 738 mmHg 84%
    07:00 +21°C° 0.1 mm 1 m/S 738 mmHg 79%
    08:00 +20°C° 0 mm 0 m/S 739 mmHg 74%
    09:00 +22°C° 0 mm 0 m/S 739 mmHg 69%
    10:00 +25°C° 0 mm 1 m/S 739 mmHg 64%
    11:00 +26°C° 0 mm 1 m/S 739 mmHg 59%
    12:00 +27°C° 0.4 mm 1 m/S 739 mmHg 58%
    13:00 +27°C° 0.4 mm 1 m/S 739 mmHg 56%
    14:00 +27°C° 0.4 mm 2 m/S 738 mmHg 55%
    15:00 +27°C° 0.1 mm 2 m/S 738 mmHg 56%
    16:00 +27°C° 0.1 mm 1 m/S 738 mmHg 56%
    17:00 +27°C° 0.1 mm 1 m/S 738 mmHg 57%
    18:00 +26°C° 0.2 mm 1 m/S 738 mmHg 65%
    19:00 +24°C° 0.2 mm 1 m/S 738 mmHg 72%
    20:00 +22°C° 0.2 mm 1 m/S 737 mmHg 80%
    21:00 +21°C° 0 mm 1 m/S 737 mmHg 81%
    22:00 +21°C° 0 mm 1 m/S 738 mmHg 82%
    23:00 +20°C° 0 mm 1 m/S 738 mmHg 83%

    Morgen, 22 Juli, Montag

    Zeit Temperatur Niederschläge Wind Luftdruck Luftfeuchtigkeit
    00:00 +20°C° 0 mm 1 m/S 738 mmHg 85%
    01:00 +20°C° 0 mm 1 m/S 738 mmHg 86%
    02:00 +18°C° 0 mm 2 m/S 738 mmHg 87%
    03:00 +18°C° 0 mm 2 m/S 737 mmHg 88%
    04:00 +18°C° 0 mm 2 m/S 737 mmHg 89%
    05:00 +18°C° 0 mm 2 m/S 737 mmHg 90%
    06:00 +18°C° 0.6 mm 2 m/S 737 mmHg 91%
    07:00 +19°C° 0.6 mm 3 m/S 737 mmHg 92%
    08:00 +19°C° 0.6 mm 3 m/S 737 mmHg 94%
    09:00 +20°C° 0 mm 4 m/S 737 mmHg 91%
    10:00 +21°C° 0 mm 4 m/S 737 mmHg 88%
    11:00 +21°C° 0 mm 5 m/S 737 mmHg 85%
    12:00 +22°C° 0.3 mm 5 m/S 737 mmHg 81%
    13:00 +23°C° 0.3 mm 6 m/S 737 mmHg 77%
    14:00 +24°C° 0.3 mm 6 m/S 737 mmHg 73%
    15:00 +24°C° 0.2 mm 6 m/S 737 mmHg 73%
    16:00 +25°C° 0.2 mm 5 m/S 737 mmHg 73%
    17:00 +25°C° 0.2 mm 5 m/S 737 mmHg 73%
    18:00 +22°C° 0.1 mm 5 m/S 737 mmHg 79%
    19:00 +21°C° 0.1 mm 4 m/S 737 mmHg 84%
    20:00 +19°C° 0.1 mm 3 m/S 737 mmHg 90%
    21:00 +19°C° 0 mm 3 m/S 737 mmHg 91%
    22:00 +18°C° 0 mm 3 m/S 737 mmHg 92%
    23:00 +18°C° 0 mm 3 m/S 737 mmHg 94%

    übermorgen, 23 Juli, Dienstag

    Zeit Temperatur Niederschläge Wind Luftdruck Luftfeuchtigkeit
    00:00 +17°C° 0 mm 3 m/S 737 mmHg 93%
    01:00 +17°C° 0 mm 3 m/S 737 mmHg 93%
    02:00 +17°C° 0 mm 3 m/S 737 mmHg 92%
    03:00 +16°C° 0 mm 3 m/S 737 mmHg 93%
    04:00 +16°C° 0 mm 3 m/S 737 mmHg 94%
    05:00 +16°C° 0 mm 3 m/S 737 mmHg 95%
    06:00 +16°C° 0 mm 3 m/S 737 mmHg 90%
    07:00 +17°C° 0 mm 4 m/S 737 mmHg 85%
    08:00 +18°C° 0 mm 4 m/S 737 mmHg 80%
    09:00 +19°C° 0 mm 4 m/S 737 mmHg 76%
    10:00 +20°C° 0 mm 5 m/S 737 mmHg 71%
    11:00 +21°C° 0 mm 5 m/S 737 mmHg 67%
    12:00 +22°C° 0 mm 5 m/S 737 mmHg 64%
    13:00 +22°C° 0 mm 5 m/S 737 mmHg 62%
    14:00 +22°C° 0 mm 5 m/S 736 mmHg 59%
    15:00 +22°C° 0 mm 5 m/S 736 mmHg 61%
    16:00 +22°C° 0 mm 5 m/S 736 mmHg 63%
    17:00 +22°C° 0 mm 5 m/S 736 mmHg 65%
    18:00 +20°C° 0.1 mm 4 m/S 736 mmHg 72%
    19:00 +18°C° 0.1 mm 3 m/S 736 mmHg 79%
    20:00 +17°C° 0.1 mm 2 m/S 735 mmHg 86%
    21:00 +16°C° 0.1 mm 2 m/S 736 mmHg 88%
    22:00 +16°C° 0.1 mm 2 m/S 736 mmHg 90%
    23:00 +14°C° 0.1 mm 3 m/S 736 mmHg 92%

    24 Juli, Mittwoch

    Zeit Temperatur Niederschläge Wind Luftdruck Luftfeuchtigkeit
    00:00 +15°C° 0 mm 2 m/S 735 mmHg 93%
    01:00 +14°C° 0 mm 2 m/S 735 mmHg 94%
    02:00 +14°C° 0 mm 2 m/S 735 mmHg 96%
    03:00 +14°C° 0 mm 2 m/S 735 mmHg 96%
    04:00 +14°C° 0 mm 2 m/S 735 mmHg 97%
    05:00 +14°C° 0 mm 2 m/S 735 mmHg 97%
    06:00 +14°C° 0 mm 3 m/S 735 mmHg 94%
    07:00 +16°C° 0 mm 3 m/S 735 mmHg 90%
    08:00 +18°C° 0 mm 3 m/S 735 mmHg 87%
    09:00 +19°C° 0.2 mm 3 m/S 735 mmHg 84%
    10:00 +20°C° 0.2 mm 4 m/S 736 mmHg 81%
    11:00 +20°C° 0.2 mm 4 m/S 736 mmHg 78%
    12:00 +21°C° 0.9 mm 5 m/S 735 mmHg 76%
    13:00 +22°C° 0.9 mm 5 m/S 735 mmHg 74%
    14:00 +23°C° 0.9 mm 6 m/S 735 mmHg 73%
    15:00 +23°C° 0.6 mm 5 m/S 735 mmHg 73%
    16:00 +23°C° 0.6 mm 5 m/S 735 mmHg 73%
    17:00 +23°C° 0.6 mm 5 m/S 735 mmHg 73%
    18:00 +21°C° 0.4 mm 5 m/S 735 mmHg 78%
    19:00 +20°C° 0.4 mm 4 m/S 735 mmHg 82%
    20:00 +19°C° 0.4 mm 4 m/S 735 mmHg 87%
    21:00 +18°C° 0 mm 4 m/S 735 mmHg 89%
    22:00 +18°C° 0 mm 4 m/S 736 mmHg 91%
    23:00 +17°C° 0 mm 4 m/S 736 mmHg 93%

    25 Juli, Donnerstag

    Zeit Temperatur Niederschläge Wind Luftdruck Luftfeuchtigkeit
    00:00 +17°C° 0 mm 4 m/S 736 mmHg 94%
    01:00 +17°C° 0 mm 4 m/S 736 mmHg 95%
    02:00 +15°C° 0 mm 4 m/S 736 mmHg 96%
    03:00 +15°C° 0 mm 4 m/S 736 mmHg 96%
    04:00 +15°C° 0 mm 4 m/S 736 mmHg 96%
    05:00 +15°C° 0 mm 4 m/S 737 mmHg 96%
    06:00 +16°C° 0 mm 5 m/S 737 mmHg 92%
    07:00 +17°C° 0 mm 6 m/S 737 mmHg 87%
    08:00 +19°C° 0 mm 6 m/S 737 mmHg 83%
    09:00 +21°C° 0 mm 6 m/S 737 mmHg 77%
    10:00 +22°C° 0 mm 7 m/S 738 mmHg 71%
    11:00 +23°C° 0 mm 7 m/S 738 mmHg 65%
    12:00 +24°C° 0 mm 7 m/S 738 mmHg 63%
    13:00 +24°C° 0 mm 7 m/S 737 mmHg 60%
    14:00 +26°C° 0 mm 7 m/S 737 mmHg 58%
    15:00 +26°C° 0 mm 6 m/S 737 mmHg 60%
    16:00 +24°C° 0 mm 6 m/S 737 mmHg 61%
    17:00 +25°C° 0 mm 5 m/S 737 mmHg 63%
    18:00 +23°C° 0 mm 5 m/S 737 mmHg 65%
    19:00 +21°C° 0 mm 5 m/S 737 mmHg 67%
    20:00 +20°C° 0 mm 4 m/S 737 mmHg 70%
    21:00 +19°C° 0 mm 4 m/S 737 mmHg 73%
    22:00 +18°C° 0 mm 3 m/S 737 mmHg 76%
    23:00 +17°C° 0 mm 3 m/S 737 mmHg 79%

    26 Juli, Freitag

    Zeit Temperatur Niederschläge Wind Luftdruck Luftfeuchtigkeit
    00:00 +17°C° 0 mm 3 m/S 737 mmHg 83%
    01:00 +16°C° 0 mm 3 m/S 737 mmHg 86%
    02:00 +16°C° 0 mm 3 m/S 737 mmHg 90%
    03:00 +15°C° 0 mm 4 m/S 737 mmHg 91%
    04:00 +14°C° 0 mm 4 m/S 737 mmHg 92%
    05:00 +14°C° 0 mm 4 m/S 737 mmHg 93%
    06:00 +17°C° 0 mm 4 m/S 737 mmHg 88%
    07:00 +17°C° 0 mm 5 m/S 737 mmHg 83%
    08:00 +20°C° 0 mm 5 m/S 737 mmHg 79%
    09:00 +21°C° 0 mm 5 m/S 737 mmHg 74%
    10:00 +23°C° 0 mm 5 m/S 737 mmHg 70%
    11:00 +24°C° 0 mm 6 m/S 737 mmHg 65%
    12:00 +23°C° 0.4 mm 5 m/S 737 mmHg 69%
    13:00 +23°C° 0.4 mm 5 m/S 737 mmHg 72%
    14:00 +23°C° 0.4 mm 5 m/S 737 mmHg 76%
    15:00 +23°C° 0.2 mm 5 m/S 737 mmHg 75%
    16:00 +23°C° 0.2 mm 5 m/S 737 mmHg 74%
    17:00 +25°C° 0.2 mm 5 m/S 737 mmHg 73%
    18:00 +22°C° 0.2 mm 4 m/S 737 mmHg 79%
    19:00 +21°C° 0.2 mm 3 m/S 737 mmHg 85%
    20:00 +20°C° 0.2 mm 2 m/S 737 mmHg 92%
    21:00 +19°C° 0.1 mm 2 m/S 737 mmHg 92%
    22:00 +19°C° 0.1 mm 2 m/S 737 mmHg 93%
    23:00 +18°C° 0.1 mm 2 m/S 737 mmHg 94%
    Mehr zeigen